Date String (YYYY-MM-DD hh:mm:ss) UTC,Instrument flags,absolute air pressure of the measurement (hPa),sample flow rate (lpm),inlet stack bypass flow (lpm),air temperature of the measurement (°C),ambient temperature measured by the external sensor (°C),aerosol sample conditioner tube jacket temperature (°C),OPC LED temperature (°C),internal box temperature (°C),relative humidity of the measurement (%),span deviation,mass concentration of particles derived from Lorenz-Mie calculation of OPC scattering (μg/m³),mass concentration of particles derived from Lorenz-Mie calculation of OPC scattering (μg/m³),mass concentration of particles derived from Lorenz-Mie calculation of OPC scattering (μg/m³)
DateTimeUTC,F1_M11,P_M11,Q1_M11,Q2_M11,T1_M11,T2_M11,T3_M11,T4_M11,T5_M11,U1_M11,ZSPAN_M11,X2_M11,X0_M11,X1_M11
2024-01-18 21:00:00,SystemResetWarning,0830.2,5.00,000.00,019.1,018.3,000.0,027.5,020.1,14.2,0000.0,0001.83,0007.67,0001.08
2024-01-18 21:01:00,SystemResetWarning,0830.2,5.00,000.00,019.1,018.3,000.0,027.5,020.2,14.2,0000.0,0001.90,0007.53,0001.09
2024-01-18 21:02:00,SystemResetWarning,0830.1,5.00,000.00,019.1,018.3,000.0,027.5,020.2,14.2,0000.0,0001.94,0007.24,0001.10
2024-01-18 21:03:00,SystemResetWarning,0830.2,5.00,000.00,019.1,018.3,000.0,027.5,020.1,14.3,0000.0,0001.94,0007.01,0001.11
2024-01-18 21:04:00,SystemResetWarning,0830.3,5.00,000.00,019.1,018.3,000.0,027.5,020.1,14.4,0000.0,0001.93,0006.50,0001.12
2024-01-18 21:05:00,SystemResetWarning,0830.3,4.99,000.00,019.1,018.3,000.0,027.5,020.1,14.1,0000.0,0001.91,0006.20,0001.12
2024-01-18 21:06:00,SystemResetWarning,0830.4,5.00,000.00,019.1,018.2,000.0,027.5,020.0,14.0,0000.0,0001.91,0005.86,0001.13
2024-01-18 21:07:00,SystemResetWarning,0830.4,5.00,000.00,019.0,018.2,000.0,027.5,020.0,14.1,0000.0,0001.93,0004.62,0001.13
2024-01-18 21:08:00,SystemResetWarning,0830.4,5.00,000.00,019.0,018.2,000.0,027.5,020.0,14.1,0000.0,0001.99,0004.43,0001.14
2024-01-18 21:09:00,SystemResetWarning,0830.4,5.01,000.00,019.0,018.2,000.0,027.5,020.0,13.9,0000.0,0002.04,0005.32,0001.15
2024-01-18 21:10:00,SystemResetWarning,0830.4,5.00,000.00,019.0,018.1,000.0,027.5,020.0,13.9,0000.0,0002.13,0006.18,0001.14
2024-01-18 21:11:00,SystemResetWarning,0830.5,5.00,000.00,019.0,018.1,000.0,027.4,020.0,13.9,0000.0,0002.07,0007.14,0001.14
2024-01-18 21:12:00,SystemResetWarning,0830.6,5.00,000.00,019.0,018.1,000.0,027.4,020.0,13.9,0000.0,0001.99,0007.00,0001.13
2024-01-18 21:13:00,SystemResetWarning,0830.7,5.00,000.00,019.0,018.1,000.0,027.4,020.0,14.1,0000.0,0002.01,0007.17,0001.13
2024-01-18 21:14:00,SystemResetWarning,0830.7,5.00,000.00,019.0,018.0,000.0,027.4,020.0,14.3,0000.0,0002.06,0007.58,0001.12
2024-01-18 21:15:00,SystemResetWarning,0830.6,4.99,000.00,019.0,018.0,000.0,027.4,020.0,14.4,0000.0,0002.14,0007.66,0001.12
2024-01-18 21:16:00,SystemResetWarning,0830.6,5.00,000.00,019.0,018.0,000.0,027.4,020.0,14.6,0000.0,0002.21,0007.70,0001.12
2024-01-18 21:17:00,SystemResetWarning,0830.8,5.01,000.00,018.9,017.9,000.0,027.5,020.0,14.7,0000.0,0002.18,0007.87,0001.13
2024-01-18 21:18:00,SystemResetWarning,0830.8,5.01,000.00,018.9,017.9,000.0,027.5,020.0,14.8,0000.0,0002.13,0008.02,0001.13
2024-01-18 21:19:00,SystemResetWarning,0830.7,5.00,000.00,018.9,017.9,000.0,027.4,020.0,14.6,0000.0,0002.07,0007.78,0001.12
2024-01-18 21:20:00,SystemResetWarning,0830.6,5.00,000.00,018.9,017.9,000.0,027.4,020.0,14.6,0000.0,0002.11,0007.30,0001.13
2024-01-18 21:21:00,SystemResetWarning,0830.6,4.99,000.00,018.9,017.9,000.0,027.4,020.0,14.6,0000.0,0002.03,0007.10,0001.14
2024-01-18 21:22:00,SystemResetWarning,0830.5,4.99,000.00,018.9,017.9,000.0,027.4,020.0,14.6,0000.0,0002.08,0006.85,0001.15
2024-01-18 21:23:00,SystemResetWarning,0830.6,4.99,000.00,018.9,017.9,000.0,027.4,020.0,14.7,0000.0,0002.07,0006.88,0001.15
2024-01-18 21:24:00,SystemResetWarning,0830.7,5.00,000.00,018.9,017.9,000.0,027.4,020.0,14.6,0000.0,0002.02,0006.69,0001.15
2024-01-18 21:25:00,SystemResetWarning,0830.8,5.00,000.00,018.9,017.8,000.0,027.5,020.0,14.6,0000.0,0001.96,0006.07,0001.16
2024-01-18 21:26:00,SystemResetWarning,0830.8,5.01,000.00,018.9,017.8,000.0,027.4,020.0,14.8,0000.0,0001.89,0006.46,0001.16
2024-01-18 21:27:00,SystemResetWarning,0830.7,5.00,000.00,018.9,017.8,000.0,027.4,020.0,14.8,0000.0,0001.85,0007.42,0001.17
2024-01-18 21:28:00,SystemResetWarning,0830.7,5.00,000.00,018.9,017.7,000.0,027.4,020.0,14.6,0000.0,0001.90,0007.94,0001.17
2024-01-18 21:29:00,SystemResetWarning,0830.8,5.00,000.00,018.9,017.7,000.0,027.4,020.0,14.6,0000.0,0001.90,0007.81,0001.17
2024-01-18 21:30:00,SystemResetWarning,0830.8,5.00,000.00,018.9,017.7,000.0,027.4,020.0,14.5,0000.0,0001.90,0008.14,0001.18
2024-01-18 21:31:00,SystemResetWarning,0830.7,4.99,000.00,018.9,017.7,000.0,027.4,020.0,14.4,0000.0,0001.93,0008.59,0001.19
2024-01-18 21:32:00,SystemResetWarning,0830.6,4.99,000.00,018.9,017.6,000.0,027.4,020.0,14.3,0000.0,0001.94,0008.91,0001.18
2024-01-18 21:33:00,SystemResetWarning,0830.5,5.00,000.00,018.9,017.6,000.0,027.4,020.0,14.4,0000.0,0001.96,0008.78,0001.17
2024-01-18 21:34:00,SystemResetWarning,0830.6,5.00,000.00,018.9,017.6,000.0,027.4,020.0,14.4,0000.0,0001.99,0008.90,0001.17
2024-01-18 21:35:00,SystemResetWarning,0830.7,5.01,000.00,018.9,017.6,000.0,027.4,020.0,14.3,0000.0,0002.03,0008.99,0001.17
2024-01-18 21:36:00,SystemResetWarning,0830.6,5.00,000.00,018.9,017.6,000.0,027.4,020.0,14.4,0000.0,0002.12,0009.22,0001.18
2024-01-18 21:37:00,SystemResetWarning,0830.6,5.00,000.00,018.9,017.6,000.0,027.4,020.0,14.4,0000.0,0002.16,0009.76,0001.18
2024-01-18 21:38:00,SystemResetWarning,0830.7,4.99,000.00,018.8,017.6,000.0,027.4,020.0,14.4,0000.0,0002.13,0009.53,0001.18
2024-01-18 21:39:00,SystemResetWarning,0830.8,5.00,000.00,018.8,017.6,000.0,027.4,020.0,14.4,0000.0,0002.12,0009.07,0001.18
2024-01-18 21:40:00,SystemResetWarning,0830.7,4.99,000.00,018.8,017.6,000.0,027.4,020.0,14.4,0000.0,0002.16,0009.87,0001.19
2024-01-18 21:41:00,SystemResetWarning,0830.7,5.00,000.00,018.8,017.5,000.0,027.4,020.0,14.3,0000.0,0002.21,0009.75,0001.20
2024-01-18 21:42:00,SystemResetWarning,0830.7,5.00,000.00,018.8,017.5,000.0,027.4,020.0,14.2,0000.0,0002.12,0009.33,0001.18
2024-01-18 21:43:00,SystemResetWarning,0830.7,5.00,000.00,018.8,017.5,000.0,027.4,020.0,14.2,0000.0,0002.08,0009.32,0001.18
2024-01-18 21:44:00,SystemResetWarning,0830.7,5.01,000.00,018.8,017.5,000.0,027.4,020.0,14.2,0000.0,0002.06,0009.06,0001.19
2024-01-18 21:45:00,SystemResetWarning,0830.8,5.00,000.00,018.8,017.5,000.0,027.4,020.0,14.2,0000.0,0002.05,0009.17,0001.20
2024-01-18 21:46:00,SystemResetWarning,0830.9,4.99,000.00,018.8,017.5,000.0,027.4,020.0,14.2,0000.0,0002.09,0009.85,0001.22
2024-01-18 21:47:00,SystemResetWarning,0830.8,5.00,000.00,018.8,017.5,000.0,027.4,020.0,14.1,0000.0,0002.08,0009.89,0001.24
2024-01-18 21:48:00,SystemResetWarning,0830.7,4.99,000.00,018.8,017.5,000.0,027.4,020.0,14.0,0000.0,0002.08,0009.57,0001.24
2024-01-18 21:49:00,SystemResetWarning,0830.6,5.00,000.00,018.8,017.5,000.0,027.4,020.0,13.8,0000.0,0002.14,0009.09,0001.25
2024-01-18 21:50:00,SystemResetWarning,0830.6,5.00,000.00,018.8,017.5,000.0,027.4,020.0,13.7,0000.0,0002.15,0009.53,0001.26
2024-01-18 21:51:00,SystemResetWarning,0830.7,5.01,000.00,018.8,017.5,000.0,027.4,020.0,13.7,0000.0,0002.14,0008.68,0001.27
2024-01-18 21:52:00,SystemResetWarning,0830.8,5.00,000.00,018.8,017.5,000.0,027.4,020.0,13.7,0000.0,0002.12,0008.95,0001.27
2024-01-18 21:53:00,SystemResetWarning,0830.9,5.00,000.00,018.8,017.5,000.0,027.4,020.0,13.8,0000.0,0002.15,0008.92,0001.28
2024-01-18 21:54:00,SystemResetWarning,0830.9,5.00,000.00,018.8,017.5,000.0,027.4,020.0,13.8,0000.0,0002.17,0008.47,0001.30
2024-01-18 21:55:00,SystemResetWarning,0830.9,5.00,000.00,018.8,017.5,000.0,027.3,020.0,13.7,0000.0,0002.18,0008.29,0001.31
2024-01-18 21:56:00,SystemResetWarning,0830.7,5.00,000.00,018.8,017.4,000.0,027.3,020.0,13.7,0000.0,0002.20,0008.69,0001.32
2024-01-18 21:57:00,SystemResetWarning,0830.8,5.00,000.00,018.8,017.4,000.0,027.3,020.0,13.8,0000.0,0002.25,0009.37,0001.34
2024-01-18 21:58:00,SystemResetWarning,0831.0,5.00,000.00,018.8,017.4,000.0,027.3,020.0,13.7,0000.0,0002.26,0008.64,0001.36
2024-01-18 21:59:00,SystemResetWarning,0831.1,5.00,000.00,018.8,017.4,000.0,027.3,020.0,13.4,0000.0,0002.28,0008.71,0001.36
